Location: Bijele Vode
(45.2833°N, 16.2000°E)
Time: 10:47:21
(UTC+00:00)

CZ-2C R/B - Pass Details

Date: 24 January 2021
Orbit: 390 x 584 km, 35.0° (Epoch: 25 February)

Event Time Altitude Azimuth Distance (km) Brightness Sun altitude
Exits shadow 03:25:51 13° 140° (SE) 1,628 4.1 -31.2°
Drops below altitude 10° 03:26:44 10° 129° (SE) 1,805 4.5 -31.0°
Sets 03:29:37 0° 108° (ESE) 2,657 5.8 -30.5°
